Cosmos 2369 - Orbit

View from above orbital plane
View from above orbital plane
View from above satellite
View from above satellite

Ground track
Ground track

The orbit data is extracted from the following two-line orbital elements,

1 26069U 00006A   13136.81450197 -.00000141  00000-0 -49773-4 0  9721
2 26069 070.9943 244.9693 0012146 321.1227 184.0994 14.13151670685278
Epoch (UTC): 16 May 2013 19:32:52
Eccentricity: 0.0012146
inclination: 70.9943°
perigee height: 840 km
apogee height: 857 km
right ascension of ascending node: 244.9693°
argument of perigee: 321.1227°
revolutions per day: 14.13151670
mean anomaly at epoch: 184.0994°
orbit number at epoch: 68527

The dashed part of the orbit path shows where the satellite is in the earth's shadow,  

Developed and maintained by Chris Peat, Heavens-Above GmbH. Please read the updated FAQ before sending e-mail. Imprint. DLR